Météo par heure à Kyundyade

Ce jour, 25 Juillet, Dimanche

Heure Température Précipitation Vent Pression Humidité
00:00 +17°C° 0 mm 2 m/s 746 mmHg 75%
01:00 +16°C° 0 mm 2 m/s 747 mmHg 77%
02:00 +15°C° 0 mm 2 m/s 747 mmHg 81%
03:00 +15°C° 0 mm 2 m/s 747 mmHg 80%
04:00 +15°C° 0 mm 2 m/s 747 mmHg 79%
05:00 +15°C° 0 mm 2 m/s 748 mmHg 79%
06:00 +17°C° 0 mm 2 m/s 748 mmHg 70%
07:00 +19°C° 0 mm 2 m/s 748 mmHg 61%
08:00 +21°C° 0 mm 2 m/s 748 mmHg 52%
09:00 +22°C° 0 mm 3 m/s 748 mmHg 46%
10:00 +24°C° 0 mm 3 m/s 748 mmHg 40%
11:00 +26°C° 0 mm 4 m/s 748 mmHg 34%
12:00 +26°C° 0 mm 3 m/s 748 mmHg 32%
13:00 +27°C° 0 mm 3 m/s 748 mmHg 31%
14:00 +28°C° 0 mm 3 m/s 747 mmHg 29%
15:00 +28°C° 0 mm 3 m/s 747 mmHg 30%
16:00 +28°C° 0 mm 3 m/s 747 mmHg 32%
17:00 +28°C° 0 mm 3 m/s 747 mmHg 34%
18:00 +27°C° 0 mm 2 m/s 747 mmHg 42%
19:00 +25°C° 0 mm 1 m/s 747 mmHg 51%
20:00 +22°C° 0 mm 0 m/s 747 mmHg 59%
21:00 +20°C° 0 mm 0 m/s 747 mmHg 60%
22:00 +21°C° 0 mm 1 m/s 747 mmHg 60%
23:00 +20°C° 0 mm 1 m/s 747 mmHg 61%

Demain, 26 Juillet, Lundi

Heure Température Précipitation Vent Pression Humidité
00:00 +19°C° 0 mm 2 m/s 747 mmHg 62%
01:00 +18°C° 0 mm 2 m/s 747 mmHg 63%
02:00 +18°C° 0 mm 2 m/s 747 mmHg 65%
03:00 +18°C° 0 mm 2 m/s 747 mmHg 66%
04:00 +18°C° 0 mm 2 m/s 747 mmHg 67%
05:00 +18°C° 0 mm 2 m/s 747 mmHg 69%
06:00 +21°C° 0 mm 2 m/s 747 mmHg 62%
07:00 +24°C° 0 mm 2 m/s 747 mmHg 56%
08:00 +26°C° 0 mm 2 m/s 747 mmHg 50%
09:00 +28°C° 0 mm 2 m/s 747 mmHg 45%
10:00 +30°C° 0 mm 2 m/s 747 mmHg 40%
11:00 +33°C° 0 mm 3 m/s 746 mmHg 35%
12:00 +32°C° 0 mm 2 m/s 746 mmHg 33%
13:00 +34°C° 0 mm 2 m/s 746 mmHg 31%
14:00 +35°C° 0 mm 2 m/s 746 mmHg 29%
15:00 +34°C° 0 mm 2 m/s 745 mmHg 33%
16:00 +32°C° 0 mm 2 m/s 745 mmHg 36%
17:00 +31°C° 0 mm 1 m/s 745 mmHg 40%
18:00 +30°C° 0 mm 1 m/s 745 mmHg 45%
19:00 +28°C° 0 mm 1 m/s 745 mmHg 51%
20:00 +27°C° 0 mm 1 m/s 745 mmHg 57%
21:00 +25°C° 0 mm 1 m/s 745 mmHg 59%
22:00 +24°C° 0 mm 1 m/s 745 mmHg 61%
23:00 +23°C° 0 mm 1 m/s 745 mmHg 63%

Après-demain, 27 Juillet, Mardi

Heure Température Précipitation Vent Pression Humidité
00:00 +22°C° 0 mm 1 m/s 745 mmHg 64%
01:00 +22°C° 0 mm 1 m/s 745 mmHg 65%
02:00 +22°C° 0 mm 1 m/s 745 mmHg 67%
03:00 +22°C° 0 mm 1 m/s 745 mmHg 67%
04:00 +20°C° 0 mm 0 m/s 745 mmHg 68%
05:00 +20°C° 0 mm 0 m/s 745 mmHg 69%
06:00 +22°C° 0 mm 0 m/s 745 mmHg 64%
07:00 +24°C° 0 mm 0 m/s 746 mmHg 60%
08:00 +25°C° 0 mm 0 m/s 746 mmHg 55%
09:00 +27°C° 0 mm 0 m/s 745 mmHg 50%
10:00 +29°C° 0 mm 0 m/s 745 mmHg 45%
11:00 +33°C° 0 mm 1 m/s 745 mmHg 40%
12:00 +33°C° 0 mm 1 m/s 745 mmHg 37%
13:00 +34°C° 0 mm 1 m/s 745 mmHg 35%
14:00 +35°C° 0 mm 1 m/s 744 mmHg 32%
15:00 +34°C° 0 mm 1 m/s 744 mmHg 33%
16:00 +34°C° 0 mm 1 m/s 744 mmHg 33%
17:00 +34°C° 0 mm 1 m/s 744 mmHg 33%
18:00 +32°C° 0 mm 1 m/s 744 mmHg 41%
19:00 +30°C° 0 mm 1 m/s 743 mmHg 49%
20:00 +28°C° 0 mm 1 m/s 743 mmHg 57%
21:00 +27°C° 0 mm 1 m/s 743 mmHg 61%
22:00 +25°C° 0 mm 1 m/s 744 mmHg 65%
23:00 +24°C° 0 mm 1 m/s 744 mmHg 70%

28 Juillet, Mercredi

Heure Température Précipitation Vent Pression Humidité
00:00 +23°C° 0 mm 1 m/s 744 mmHg 72%
01:00 +22°C° 0 mm 1 m/s 744 mmHg 75%
02:00 +22°C° 0 mm 1 m/s 744 mmHg 78%
03:00 +21°C° 0 mm 1 m/s 744 mmHg 78%
04:00 +20°C° 0 mm 2 m/s 744 mmHg 79%
05:00 +20°C° 0 mm 2 m/s 744 mmHg 79%
06:00 +21°C° 0 mm 2 m/s 745 mmHg 71%
07:00 +24°C° 0 mm 3 m/s 745 mmHg 62%
08:00 +25°C° 0 mm 3 m/s 745 mmHg 54%
09:00 +26°C° 0 mm 3 m/s 745 mmHg 50%
10:00 +28°C° 0 mm 3 m/s 745 mmHg 46%
11:00 +29°C° 0 mm 3 m/s 745 mmHg 42%
12:00 +29°C° 0 mm 3 m/s 744 mmHg 42%
13:00 +30°C° 0 mm 3 m/s 744 mmHg 41%
14:00 +30°C° 0 mm 3 m/s 744 mmHg 40%
15:00 +30°C° 0 mm 3 m/s 744 mmHg 39%
16:00 +30°C° 0 mm 3 m/s 744 mmHg 38%
17:00 +29°C° 0 mm 3 m/s 744 mmHg 38%
18:00 +27°C° 0 mm 3 m/s 744 mmHg 43%
19:00 +25°C° 0 mm 2 m/s 744 mmHg 48%
20:00 +23°C° 0 mm 2 m/s 744 mmHg 54%
21:00 +20°C° 0 mm 2 m/s 744 mmHg 57%
22:00 +19°C° 0 mm 2 m/s 744 mmHg 60%
23:00 +17°C° 0 mm 2 m/s 744 mmHg 63%

29 Juillet, Jeudi

Heure Température Précipitation Vent Pression Humidité
00:00 +16°C° 0 mm 2 m/s 745 mmHg 66%
01:00 +16°C° 0 mm 2 m/s 745 mmHg 68%
02:00 +15°C° 0 mm 2 m/s 745 mmHg 71%
03:00 +15°C° 0 mm 2 m/s 745 mmHg 72%
04:00 +15°C° 0 mm 2 m/s 745 mmHg 74%
05:00 +15°C° 0 mm 1 m/s 745 mmHg 76%
06:00 +17°C° 0 mm 2 m/s 746 mmHg 66%
07:00 +20°C° 0 mm 2 m/s 746 mmHg 56%
08:00 +23°C° 0 mm 2 m/s 746 mmHg 47%
09:00 +24°C° 0 mm 2 m/s 746 mmHg 43%
10:00 +26°C° 0 mm 2 m/s 746 mmHg 38%
11:00 +27°C° 0 mm 3 m/s 746 mmHg 34%
12:00 +28°C° 0 mm 3 m/s 746 mmHg 33%
13:00 +28°C° 0 mm 3 m/s 746 mmHg 31%
14:00 +28°C° 0 mm 3 m/s 745 mmHg 30%
15:00 +28°C° 0 mm 3 m/s 745 mmHg 30%
16:00 +28°C° 0 mm 3 m/s 746 mmHg 29%
17:00 +28°C° 0 mm 3 m/s 746 mmHg 28%
18:00 +26°C° 0 mm 3 m/s 746 mmHg 36%
19:00 +23°C° 0 mm 2 m/s 746 mmHg 44%
20:00 +20°C° 0 mm 2 m/s 746 mmHg 52%
21:00 +19°C° 0 mm 2 m/s 746 mmHg 52%
22:00 +18°C° 0 mm 1 m/s 746 mmHg 52%
23:00 +15°C° 0 mm 1 m/s 747 mmHg 52%

30 Juillet, Vendredi

Heure Température Précipitation Vent Pression Humidité
00:00 +15°C° 0 mm 1 m/s 747 mmHg 53%
01:00 +14°C° 0 mm 1 m/s 747 mmHg 53%
02:00 +13°C° 0 mm 1 m/s 747 mmHg 54%
03:00 +13°C° 0 mm 1 m/s 747 mmHg 55%
04:00 +14°C° 0 mm 1 m/s 747 mmHg 57%
05:00 +14°C° 0 mm 1 m/s 747 mmHg 58%
06:00 +16°C° 0 mm 1 m/s 747 mmHg 52%
07:00 +20°C° 0 mm 1 m/s 747 mmHg 45%
08:00 +22°C° 0 mm 1 m/s 747 mmHg 38%
09:00 +24°C° 0 mm 1 m/s 747 mmHg 35%
10:00 +25°C° 0 mm 2 m/s 747 mmHg 32%
11:00 +27°C° 0 mm 2 m/s 746 mmHg 29%
12:00 +27°C° 0 mm 2 m/s 746 mmHg 28%
13:00 +28°C° 0 mm 2 m/s 746 mmHg 26%
14:00 +29°C° 0 mm 2 m/s 745 mmHg 25%
15:00 +29°C° 0 mm 2 m/s 745 mmHg 26%
16:00 +29°C° 0 mm 2 m/s 745 mmHg 26%
17:00 +29°C° 0 mm 2 m/s 745 mmHg 26%
18:00 +27°C° 0 mm 1 m/s 745 mmHg 35%
19:00 +25°C° 0 mm 1 m/s 745 mmHg 44%
20:00 +20°C° 0 mm 0 m/s 745 mmHg 53%
21:00 +19°C° 0 mm 0 m/s 745 mmHg 55%
22:00 +18°C° 0 mm 0 m/s 744 mmHg 56%
23:00 +18°C° 0 mm 1 m/s 744 mmHg 58%
Voir plus

Nous avons besoin de votre consentement

Meteoprog et ses fournisseurs de services peuvent stocker et accéder à des données personnelles telles que des cookies, des identifiants d'appareils ou d'autres technologies similaires sur votre appareil et traiter ces données pour personnaliser le contenu et les publicités, ainsi que pour fournir des fonctionnalités de médias sociaux et analyser le trafic.

  • Stocker et/ou accéder à des informations sur votre appareil

    Des cookies, des identifiants d'appareils ou d'autres informations peuvent être stockés ou accessibles sur votre appareil aux fins indiquées ci-dessus.

  • Annonces et contenus personnalisés, mesure des annonces et des contenus, connaissance de l'audience et développement de produits

    Les annonces et le contenu peuvent être personnalisés en fonction d'un profil. D'autres données peuvent être ajoutées pour mieux personnaliser les annonces et le contenu. Les performances des publicités et du contenu peuvent être mesurées. Il est possible d'obtenir des informations sur le public qui a vu les publicités et le contenu. Ces données peuvent être utilisées pour développer ou améliorer l'expérience de l'utilisateur, les systèmes et les logiciels.

En cliquant sur "J'accepte", vous autorisez l'utilisation de cookies, des identifiants d'appareils, des balises web ou d'autres technologies similaires. Vos paramètres peuvent être modifiés dans le navigateur de votre appareil.

Dans certains cas, des intérêts légitimes peuvent être invoqués plutôt qu'un consentement. Vous pouvez en savoir plus à ce sujet dans notre Politique de confidentialité et de cookies.